Flight Track Log - Related Links

Times and Time Zones

All times are in EDT time to prevent confusion due to time zone crossing. See the N997MX flight status page for this flight to view local times or setup timezone preferences in your user account.

Time Position Orientation Groundspeed Altitude Reporting Facility
EDT Latitude Longitude Course Direction KTS MPH feet Rate Location/Type
03:14PM 41.2686 -80.7378 252° West 200 230 2,400  Level Indianapolis Center
03:14PM 41.2594 -80.7958 258° West 236 272 3,800 2,589 Climbing Cleveland Center
03:15PM 41.2467 -80.8758 258° West 242 278 6,500 2,600 Climbing Cleveland Center
03:16PM 41.2256 -80.9558 251° West 236 272 9,000 1,700 Climbing Cleveland Center
03:17PM 41.2025 -81.0331 248° West 236 272 9,900 1,250 Climbing Cleveland Center
03:18PM 41.1708 -81.1267 246° West 269 310 11,500 1,800 Climbing Cleveland Center
03:19PM 41.1023 -81.2074 252° West  Level FlightAware Approximate
03:19PM 41.1222 -81.2117 233° Southwest 293 337 13,500  Level Cleveland Center
03:20PM 41.0739 -81.2992 234° Southwest 299 344 14,900 850 Climbing Cleveland Center
03:21PM 41.0169 -81.4031 234° Southwest 310 357 15,200 650 Climbing Cleveland Center
03:22PM 40.9847 -81.5211 250° West 328 377 16,200 1,000 Climbing Cleveland Center
03:23PM 40.9544 -81.6389 251° West 339 390 17,200 850 Climbing Cleveland Center
03:24PM 40.9242 -81.7592 252° West 344 396 17,900 700 Climbing Cleveland Center
03:25PM 40.8894 -81.8822 250° West 344 396 18,600 800 Climbing Cleveland Center
03:26PM 40.8567 -82.0050 251° West 349 402 19,500 800 Climbing Cleveland Center
03:27PM 40.8261 -82.1197 251° West 359 413 20,200 842 Climbing Cleveland Center
03:28PM 40.7956 -82.2353 251° West 356 410 21,100 931 Climbing Indianapolis Center
03:29PM 40.7614 -82.3611 250° West 358 412 22,000 871 Climbing Indianapolis Center
03:30PM 40.7275 -82.4850 250° West 357 411 22,900 871 Climbing Indianapolis Center
03:31PM 40.6928 -82.6092 250° West 357 411 23,800 871 Climbing Indianapolis Center
03:32PM 40.6597 -82.7317 250° West 354 407 24,700 823 Climbing Indianapolis Center
03:33PM 40.6269 -82.8508 250° West 345 397 25,500 823 Climbing Indianapolis Center
03:34PM 40.5950 -82.9667 250° West 338 389 26,400 919 Climbing Indianapolis Center
03:35PM 40.5561 -83.1014 249° West 334 384 27,400 919 Climbing Indianapolis Center
03:36PM 40.5258 -83.2147 251° West 329 379 28,300 823 Climbing Indianapolis Center
03:37PM 40.4942 -83.3278 250° West 328 377 29,100 774 Climbing Indianapolis Center
03:38PM 40.4622 -83.4375 249° West 323 372 29,900 677 Climbing Indianapolis Center
03:39PM 40.4311 -83.5481 250° West 323 372 30,500 677 Climbing Indianapolis Center
03:41PM 40.3994 -83.6589 249° West 324 373 31,300 677 Climbing Indianapolis Center
03:42PM 40.3617 -83.7878 249° West 323 372 31,900 339 Climbing Indianapolis Center
03:43PM 40.3303 -83.9000 250° West 326 375 32,000 48 Climbing Indianapolis Center
03:44PM 40.2961 -84.0181 249° West 342 394 32,000  Level Indianapolis Center
03:45PM 40.2742 -84.1397 257° West 342 394 32,000 -48 Level Indianapolis Center
03:46PM 40.2536 -84.2631 258° West 345 397 31,900 -48 Descending Indianapolis Center
03:47PM 40.2331 -84.3881 258° West 348 400 31,900  Level Indianapolis Center
03:48PM 40.2128 -84.5144 258° West 353 406 31,900  Level Indianapolis Center
03:49PM 40.1878 -84.6628 258° West 355 409 31,900  Level Indianapolis Center
03:50PM 40.1661 -84.7886 257° West 354 407 31,900 48 Level Indianapolis Center
03:51PM 40.1453 -84.9178 258° West 353 406 32,000 48 Climbing Indianapolis Center
03:52PM 40.1244 -85.0428 258° West 354 407 32,000  Level Indianapolis Center
03:53PM 40.1028 -85.1686 257° West 356 410 32,000  Level Indianapolis Center
03:54PM 40.0808 -85.2942 257° West 355 409 32,000  Level Indianapolis Center
03:55PM 40.0586 -85.4206 257° West 359 413 32,000 -48 Level Indianapolis Center
03:56PM 40.0339 -85.5719 258° West 358 412 31,900  Descending Indianapolis Center
03:57PM 40.0111 -85.6992 257° West 359 413 32,000 48 Climbing Indianapolis Center
03:58PM 39.9900 -85.8247 258° West 357 411 32,000  Level Indianapolis Center
03:59PM 39.9675 -85.9506 257° West 358 412 32,000  Level Indianapolis Center
04:00PM 39.9450 -86.0758 257° West 358 412 32,000  Level Indianapolis Center
04:01PM 39.9189 -86.2264 257° West 360 414 32,000  Level Indianapolis Center
04:02PM 39.8961 -86.3511 257° West 361 415 32,000  Level Indianapolis Center
04:03PM 39.8728 -86.4761 256° West 362 417 32,000  Level Indianapolis Center
04:04PM 39.8497 -86.6028 257° West 364 419 32,000  Level Indianapolis Center
04:05PM 39.8214 -86.7547 256° West 364 419 32,000  Level Indianapolis Center
04:06PM 39.7975 -86.8822 256° West 363 418 32,000  Level Indianapolis Center
04:07PM 39.7733 -87.0086 256° West 363 418 32,000  Level Indianapolis Center
04:08PM 39.7503 -87.1381 257° West 368 423 32,000  Level Indianapolis Center
04:09PM 39.7256 -87.2647 256° West 365 420 32,000 -290 Level Indianapolis Center
04:11PM 39.7008 -87.3936 256° West 368 423 31,400 -629 Descending Indianapolis Center
04:12PM 39.6703 -87.5567 256° West 388 447 30,700 -581 Descending Indianapolis Center
04:13PM 39.6425 -87.6936 255° West 392 451 30,200 -774 Descending Indianapolis Center
04:14PM 39.6164 -87.8347 257° West 400 460 29,100 -968 Descending Indianapolis Center
04:15PM 39.5872 -87.9800 255° West 412 474 28,200 -677 Descending Indianapolis Center
04:16PM 39.5581 -88.1250 255° West 416 479 27,700 -484 Descending Indianapolis Center
04:17PM 39.5297 -88.2642 255° West 406 467 27,200 -629 Descending Indianapolis Center
04:18PM 39.4975 -88.4258 256° West 405 466 26,400 -581 Descending Indianapolis Center
04:19PM 39.4694 -88.5653 255° West 402 463 26,000 -774 Descending Indianapolis Center
04:20PM 39.4431 -88.7014 256° West 394 453 24,800 -1,452 Descending Indianapolis Center
04:21PM 39.4142 -88.8436 255° West 402 463 23,000 -2,177 Descending Indianapolis Center
04:22PM 39.3764 -89.0169 254° West 414 476 20,300 -2,419 Descending Indianapolis Center
04:23PM 39.3481 -89.1553 255° West 404 465 18,000 -1,790 Descending Indianapolis Center
04:24PM 39.3222 -89.2858 256° West 385 443 16,600 -1,632 Descending Indianapolis Center
04:25PM 39.2928 -89.4319 255° West 381 438 14,300 -1,739 Descending Kansas City Center
04:26PM 39.2617 -89.5836 255° West 372 428 12,600 -1,016 Descending Kansas City Center
04:27PM 39.2372 -89.7006 255° West 351 404 12,200 -246 Descending Kansas City Center
04:28PM 39.2000 -89.8014 245° Southwest 324 373 12,100 -48 Descending Kansas City Center
04:29PM 39.1536 -89.9100 241° Southwest 314 361 12,100 -49 Level Kansas City Center
04:30PM 39.1139 -90.0025 241° Southwest 324 373 12,000 -339 Descending Kansas City Center
04:31PM 39.0686 -90.1128 242° Southwest 343 395 11,400 -768 Descending Kansas City Center
04:32PM 39.0106 -90.2478 241° Southwest 357 411 10,400 -672 Descending Kansas City Center
04:33PM 38.9628 -90.3592 241° Southwest 361 415 10,000 -144 Descending Kansas City Center
04:35PM 38.9181 -90.4622 241° Southwest 340 391 10,100 -443 Climbing Kansas City Center
04:36PM 38.8769 -90.5553 240° Southwest 308 354 9,100 -1,728 Descending Kansas City Center
04:37PM 38.8322 -90.6583 241° Southwest 281 323 6,500 -1,887 Descending Kansas City Center
04:38PM 38.7886 -90.7375 235° Southwest 277 319 5,200 -1,161 Descending Kansas City Center
04:39PM 38.7206 -90.7331 177° South 258 297 4,100 -1,296 Descending Kansas City Center
04:40PM 38.6714 -90.7136 163° South 216 249 2,500 -1,574 Descending Kansas City Center
04:41PM 38.6556 -90.6747 118° Southeast 161 185 900 -960 Descending Kansas City Center
04:42PM 38.6600 -90.6269 83° East 144 166 500 -375 Descending Kansas City Center

Login

Don't have an account? Register now (free) for customized features, flight alerts, and more!